Year,Month,Day,Hour,Minute,Value (Times are PST for temperature in C)
2011,04,26,00,00,5.40
2011,04,26,00,01,5.40
2011,04,26,00,02,5.40
2011,04,26,00,03,5.40
2011,04,26,00,04,5.40
2011,04,26,00,05,5.40
2011,04,26,00,06,5.40
2011,04,26,00,07,5.50
2011,04,26,00,08,5.40
2011,04,26,00,09,5.40
2011,04,26,00,10,5.40
2011,04,26,00,11,5.40
2011,04,26,00,12,5.40
2011,04,26,00,13,5.40
2011,04,26,00,14,5.40
2011,04,26,00,15,5.40
2011,04,26,00,16,5.40
2011,04,26,00,17,5.40
2011,04,26,00,18,5.40
2011,04,26,00,19,5.40
2011,04,26,00,20,5.40
2011,04,26,00,21,5.40
2011,04,26,00,22,5.40
2011,04,26,00,23,5.40
2011,04,26,00,24,5.40
2011,04,26,00,25,5.40
2011,04,26,00,26,5.40
2011,04,26,00,27,5.40
2011,04,26,00,28,5.30
2011,04,26,00,29,5.30
2011,04,26,00,30,5.30
2011,04,26,00,31,5.30
2011,04,26,00,32,5.30
2011,04,26,00,33,5.30
2011,04,26,00,34,5.30
2011,04,26,00,35,5.30
2011,04,26,00,36,5.30
2011,04,26,00,37,5.20
2011,04,26,00,38,5.20
2011,04,26,00,39,5.20
2011,04,26,00,40,5.20
2011,04,26,00,41,5.20
2011,04,26,00,42,5.10
2011,04,26,00,43,5.10
2011,04,26,00,44,5.10
2011,04,26,00,45,5.10
2011,04,26,00,46,5.00
2011,04,26,00,47,5.00
2011,04,26,00,48,5.00
2011,04,26,00,49,4.90
2011,04,26,00,50,4.90
2011,04,26,00,51,4.90
2011,04,26,00,52,4.90
2011,04,26,00,53,4.90
2011,04,26,00,54,4.90
2011,04,26,00,55,4.90
2011,04,26,00,56,4.90
2011,04,26,00,57,4.90
2011,04,26,00,58,4.90
2011,04,26,00,59,4.90
2011,04,26,01,00,4.90
2011,04,26,01,01,4.90
2011,04,26,01,02,4.90
2011,04,26,01,03,4.90
2011,04,26,01,04,4.90
2011,04,26,01,05,4.90
2011,04,26,01,06,4.90
2011,04,26,01,07,4.90
2011,04,26,01,08,4.90
2011,04,26,01,09,4.90
2011,04,26,01,10,5.00
2011,04,26,01,11,5.00
2011,04,26,01,12,5.00
2011,04,26,01,13,5.00
2011,04,26,01,14,5.00
2011,04,26,01,15,5.00
2011,04,26,01,16,5.00
2011,04,26,01,17,5.00
2011,04,26,01,18,5.00
2011,04,26,01,19,5.00
2011,04,26,01,20,5.10
2011,04,26,01,21,5.10
2011,04,26,01,22,5.10
2011,04,26,01,23,5.10
2011,04,26,01,24,5.10
2011,04,26,01,25,5.10
2011,04,26,01,26,5.20
2011,04,26,01,27,5.20
2011,04,26,01,28,5.20
2011,04,26,01,29,5.20
2011,04,26,01,30,5.20
2011,04,26,01,31,5.20
2011,04,26,01,32,5.20
2011,04,26,01,33,5.20
2011,04,26,01,34,5.20
2011,04,26,01,35,5.30
2011,04,26,01,36,5.30
2011,04,26,01,37,5.30
2011,04,26,01,38,5.30
2011,04,26,01,39,5.30
2011,04,26,01,40,5.30
2011,04,26,01,41,5.30
2011,04,26,01,42,5.30
2011,04,26,01,43,5.30
2011,04,26,01,44,5.30
2011,04,26,01,45,5.30
2011,04,26,01,46,5.30
2011,04,26,01,47,5.30
2011,04,26,01,48,5.30
2011,04,26,01,49,5.30
2011,04,26,01,50,5.30
2011,04,26,01,51,5.40
2011,04,26,01,52,5.40
2011,04,26,01,53,5.40
2011,04,26,01,54,5.40
2011,04,26,01,55,5.40
2011,04,26,01,56,5.30
2011,04,26,01,57,5.30
2011,04,26,01,58,5.30
2011,04,26,01,59,5.30
2011,04,26,02,00,5.30
2011,04,26,02,01,5.30
2011,04,26,02,02,5.30
2011,04,26,02,03,5.30
2011,04,26,02,04,5.30
2011,04,26,02,05,5.20
2011,04,26,02,06,5.20
2011,04,26,02,07,5.20
2011,04,26,02,08,5.20
2011,04,26,02,09,5.20
2011,04,26,02,10,5.20
2011,04,26,02,11,5.20
2011,04,26,02,12,5.20
2011,04,26,02,13,5.20
2011,04,26,02,14,5.20
2011,04,26,02,15,5.20
2011,04,26,02,16,5.20
2011,04,26,02,17,5.20
2011,04,26,02,18,5.20
2011,04,26,02,19,5.20
2011,04,26,02,20,5.10
2011,04,26,02,21,5.10
2011,04,26,02,22,5.10
2011,04,26,02,23,5.10
2011,04,26,02,24,5.10
2011,04,26,02,25,5.10
2011,04,26,02,26,5.10
2011,04,26,02,27,5.20
2011,04,26,02,28,5.20
2011,04,26,02,29,5.20
2011,04,26,02,30,5.20
2011,04,26,02,31,5.20
2011,04,26,02,32,5.20
2011,04,26,02,33,5.30
2011,04,26,02,34,5.30
2011,04,26,02,35,5.30
2011,04,26,02,36,5.30
2011,04,26,02,37,5.30
2011,04,26,02,38,5.30
2011,04,26,02,39,5.30
2011,04,26,02,40,5.30
2011,04,26,02,41,5.30
2011,04,26,02,42,5.30
2011,04,26,02,43,5.30
2011,04,26,02,44,5.30
2011,04,26,02,45,5.30
2011,04,26,02,46,5.30
2011,04,26,02,47,5.30
2011,04,26,02,48,5.30
2011,04,26,02,49,5.30
2011,04,26,02,50,5.30
2011,04,26,02,51,5.30
2011,04,26,02,52,5.30
2011,04,26,02,53,5.30
2011,04,26,02,54,5.30
2011,04,26,02,55,5.30
2011,04,26,02,56,5.30
2011,04,26,02,57,5.30
2011,04,26,02,58,5.30
2011,04,26,02,59,5.30
2011,04,26,03,00,5.30
2011,04,26,03,01,5.30
2011,04,26,03,02,5.30
2011,04,26,03,06,5.30
2011,04,26,03,07,5.30
2011,04,26,03,08,5.30
2011,04,26,03,09,5.30
2011,04,26,03,10,5.30
2011,04,26,03,11,5.30
2011,04,26,03,12,5.30
2011,04,26,03,13,5.30
2011,04,26,03,14,5.30
2011,04,26,03,15,5.30
2011,04,26,03,16,5.30
2011,04,26,03,17,5.30
2011,04,26,03,18,5.30
2011,04,26,03,19,5.30
2011,04,26,03,20,5.30
2011,04,26,03,21,5.30
2011,04,26,03,22,5.30
2011,04,26,03,23,5.30
2011,04,26,03,24,5.30
2011,04,26,03,25,5.30
2011,04,26,03,26,5.30
2011,04,26,03,27,5.30
2011,04,26,03,28,5.30
2011,04,26,03,29,5.30
2011,04,26,03,30,5.30
2011,04,26,03,31,5.30
2011,04,26,03,32,5.30
2011,04,26,03,33,5.30
2011,04,26,03,34,5.30
2011,04,26,03,35,5.30
2011,04,26,03,36,5.30
2011,04,26,03,37,5.30
2011,04,26,03,38,5.30
2011,04,26,03,39,5.30
2011,04,26,03,40,5.30
2011,04,26,03,41,5.30
2011,04,26,03,42,5.30
2011,04,26,03,43,5.30
2011,04,26,03,44,5.30
2011,04,26,03,45,5.30
2011,04,26,03,46,5.30
2011,04,26,03,47,5.30
2011,04,26,03,48,5.30
2011,04,26,03,49,5.30
2011,04,26,03,50,5.30
2011,04,26,03,51,5.30
2011,04,26,03,52,5.30
2011,04,26,03,53,5.30
2011,04,26,03,54,5.40
2011,04,26,03,55,5.40
2011,04,26,03,56,5.40
2011,04,26,03,57,5.40
2011,04,26,03,58,5.40
2011,04,26,03,59,5.40
2011,04,26,04,00,5.40
2011,04,26,04,01,5.40
2011,04,26,04,02,5.40
2011,04,26,04,03,5.40
2011,04,26,04,04,5.40
2011,04,26,04,05,5.30
2011,04,26,04,06,5.30
2011,04,26,04,07,5.30
2011,04,26,04,08,5.30
2011,04,26,04,09,5.30
2011,04,26,04,10,5.30
2011,04,26,04,11,5.30
2011,04,26,04,12,5.30
2011,04,26,04,13,5.30
2011,04,26,04,14,5.30
2011,04,26,04,15,5.30
2011,04,26,04,16,5.30
2011,04,26,04,17,5.30
2011,04,26,04,18,5.30
2011,04,26,04,19,5.30
2011,04,26,04,20,5.30
2011,04,26,04,21,5.30
2011,04,26,04,22,5.30
2011,04,26,04,23,5.30
2011,04,26,04,24,5.30
2011,04,26,04,25,5.30
2011,04,26,04,26,5.30
2011,04,26,04,27,5.30
2011,04,26,04,28,5.30
2011,04,26,04,29,5.30
2011,04,26,04,30,5.30
2011,04,26,04,31,5.30
2011,04,26,04,32,5.30
2011,04,26,04,33,5.30
2011,04,26,04,34,5.30
2011,04,26,04,35,5.30
2011,04,26,04,36,5.40
2011,04,26,04,37,5.40
2011,04,26,04,38,5.40
2011,04,26,04,39,5.40
2011,04,26,04,40,5.40
2011,04,26,04,41,5.30
2011,04,26,04,42,5.40
2011,04,26,04,43,5.30
2011,04,26,04,44,5.40
2011,04,26,04,45,5.30
2011,04,26,04,46,5.30
2011,04,26,04,47,5.30
2011,04,26,04,48,5.30
2011,04,26,04,49,5.30
2011,04,26,04,50,5.30
2011,04,26,04,51,5.30
2011,04,26,04,52,5.30
2011,04,26,04,53,5.30
2011,04,26,04,54,5.30
2011,04,26,04,55,5.30
2011,04,26,04,56,5.30
2011,04,26,04,57,5.30
2011,04,26,04,58,5.30
2011,04,26,04,59,5.30
2011,04,26,05,00,5.30
2011,04,26,05,01,5.30
2011,04,26,05,02,5.30
2011,04,26,05,03,5.30
2011,04,26,05,04,5.30
2011,04,26,05,05,5.30
2011,04,26,05,06,5.30
2011,04,26,05,07,5.30
2011,04,26,05,08,5.30
2011,04,26,05,09,5.30
2011,04,26,05,10,5.20
2011,04,26,05,11,5.20
2011,04,26,05,12,5.20
2011,04,26,05,13,5.20
2011,04,26,05,14,5.20
2011,04,26,05,15,5.20
2011,04,26,05,16,5.20
2011,04,26,05,17,5.20
2011,04,26,05,18,5.20
2011,04,26,05,19,5.20
2011,04,26,05,20,5.20
2011,04,26,05,21,5.20
2011,04,26,05,22,5.20
2011,04,26,05,23,5.20
2011,04,26,05,24,5.20
2011,04,26,05,25,5.20
2011,04,26,05,26,5.20
2011,04,26,05,27,5.20
2011,04,26,05,28,5.20
2011,04,26,05,29,5.20
2011,04,26,05,30,5.20
2011,04,26,05,31,5.20
2011,04,26,05,32,5.20
2011,04,26,05,33,5.20
2011,04,26,05,34,5.20
2011,04,26,05,35,5.20
2011,04,26,05,36,5.20
2011,04,26,05,37,5.20
2011,04,26,05,38,5.10
2011,04,26,05,39,5.10
2011,04,26,05,40,5.10
2011,04,26,05,41,5.10
2011,04,26,05,42,5.10
2011,04,26,05,43,5.10
2011,04,26,05,44,5.10
2011,04,26,05,45,5.10
2011,04,26,05,46,5.00
2011,04,26,05,47,5.00
2011,04,26,05,48,5.00
2011,04,26,05,49,5.00
2011,04,26,05,50,5.00
2011,04,26,05,51,5.00
2011,04,26,05,52,5.00
2011,04,26,05,53,5.00
2011,04,26,05,54,5.00
2011,04,26,05,55,5.00
2011,04,26,05,56,4.90
2011,04,26,05,57,4.90
2011,04,26,05,58,4.90
2011,04,26,05,59,4.90
2011,04,26,06,00,4.90
2011,04,26,06,01,4.90
2011,04,26,06,02,4.90
2011,04,26,06,03,4.90
2011,04,26,06,04,4.90
2011,04,26,06,05,4.90
2011,04,26,06,06,4.90
2011,04,26,06,07,4.90
2011,04,26,06,08,4.90
2011,04,26,06,09,4.90
2011,04,26,06,10,4.90
2011,04,26,06,11,4.90
2011,04,26,06,12,4.90
2011,04,26,06,13,4.90
2011,04,26,06,14,4.90
2011,04,26,06,15,4.90
2011,04,26,06,16,4.90
2011,04,26,06,17,4.90
2011,04,26,06,18,4.90
2011,04,26,06,19,5.00
2011,04,26,06,20,5.00
2011,04,26,06,21,5.00
2011,04,26,06,22,5.00
2011,04,26,06,23,5.00
2011,04,26,06,24,5.00
2011,04,26,06,25,5.00
2011,04,26,06,26,5.00
2011,04,26,06,27,5.00
2011,04,26,06,28,5.00
2011,04,26,06,29,5.00
2011,04,26,06,30,5.00
2011,04,26,06,31,5.00
2011,04,26,06,32,5.00
2011,04,26,06,33,5.00
2011,04,26,06,34,5.10
2011,04,26,06,35,5.10
2011,04,26,06,36,5.00
2011,04,26,06,37,5.10
2011,04,26,06,38,5.10
2011,04,26,06,39,5.10
2011,04,26,06,40,5.10
2011,04,26,06,41,5.10
2011,04,26,06,42,5.10
2011,04,26,06,43,5.10
2011,04,26,06,44,5.10
2011,04,26,06,45,5.10
2011,04,26,06,46,5.10
2011,04,26,06,47,5.10
2011,04,26,06,48,5.10
2011,04,26,06,49,5.10
2011,04,26,06,50,5.10
2011,04,26,06,51,5.10
2011,04,26,06,52,5.10
2011,04,26,06,53,5.10
2011,04,26,06,54,5.10
2011,04,26,06,55,5.10
2011,04,26,06,56,5.10
2011,04,26,06,57,5.10
2011,04,26,06,58,5.10
2011,04,26,06,59,5.10
2011,04,26,07,00,5.20
2011,04,26,07,01,5.20
2011,04,26,07,02,5.20
2011,04,26,07,03,5.20
2011,04,26,07,04,5.20
2011,04,26,07,05,5.20
2011,04,26,07,06,5.20
2011,04,26,07,07,5.20
2011,04,26,07,08,5.20
2011,04,26,07,09,5.20
2011,04,26,07,10,5.20
2011,04,26,07,11,5.20
2011,04,26,07,12,5.20
2011,04,26,07,13,5.20
2011,04,26,07,14,5.20
2011,04,26,07,15,5.20
2011,04,26,07,16,5.20
2011,04,26,07,17,5.20
2011,04,26,07,18,5.20
2011,04,26,07,19,5.20
2011,04,26,07,20,5.20
2011,04,26,07,21,5.20
2011,04,26,07,22,5.20
2011,04,26,07,23,5.20
2011,04,26,07,24,5.20
2011,04,26,07,25,5.20
2011,04,26,07,26,5.20
2011,04,26,07,27,5.20
2011,04,26,07,28,5.20
2011,04,26,07,29,5.20
2011,04,26,07,30,5.20
2011,04,26,07,31,5.20
2011,04,26,07,32,5.20
2011,04,26,07,33,5.20
2011,04,26,07,34,5.20
2011,04,26,07,35,5.20
2011,04,26,07,36,5.20
2011,04,26,07,37,5.20
2011,04,26,07,38,5.30
2011,04,26,07,39,5.30
2011,04,26,07,40,5.30
2011,04,26,07,41,5.30
2011,04,26,07,42,5.30
2011,04,26,07,43,5.30
2011,04,26,07,44,5.30
2011,04,26,07,45,5.30
2011,04,26,07,46,5.30
2011,04,26,07,47,5.30
2011,04,26,07,48,5.30
2011,04,26,07,49,5.30
2011,04,26,07,50,5.30
2011,04,26,07,51,5.30
2011,04,26,07,52,5.30
2011,04,26,07,53,5.30
2011,04,26,07,54,5.40
2011,04,26,07,55,5.40
2011,04,26,07,56,5.40
2011,04,26,07,57,5.40
2011,04,26,07,58,5.40
2011,04,26,07,59,5.40
2011,04,26,08,00,5.40
2011,04,26,08,01,5.40
2011,04,26,08,02,5.40
2011,04,26,08,03,5.40
2011,04,26,08,04,5.40
2011,04,26,08,05,5.40
2011,04,26,08,06,5.40
2011,04,26,08,07,5.40
2011,04,26,08,08,5.40
2011,04,26,08,09,5.40
2011,04,26,08,10,5.30
2011,04,26,08,11,5.30
2011,04,26,08,12,5.30
2011,04,26,08,13,5.30
2011,04,26,08,14,5.30
2011,04,26,08,15,5.30
2011,04,26,08,16,5.30
2011,04,26,08,17,5.30
2011,04,26,08,18,5.30
2011,04,26,08,19,5.40
2011,04,26,08,20,5.40
2011,04,26,08,21,5.40
2011,04,26,08,22,5.40
2011,04,26,08,23,5.40
2011,04,26,08,24,5.40
2011,04,26,08,25,5.40
2011,04,26,08,26,5.40
2011,04,26,08,27,5.40
2011,04,26,08,28,5.50
2011,04,26,08,29,5.50
2011,04,26,08,30,5.50
2011,04,26,08,31,5.60
2011,04,26,08,32,5.60
2011,04,26,08,33,5.60
2011,04,26,08,34,5.60
2011,04,26,08,35,5.60
2011,04,26,08,36,5.60
2011,04,26,08,37,5.70
2011,04,26,08,38,5.70
2011,04,26,08,39,5.70
2011,04,26,08,40,5.70
2011,04,26,08,41,5.70
2011,04,26,08,42,5.70
2011,04,26,08,43,5.70
2011,04,26,08,44,5.70
2011,04,26,08,45,5.80
2011,04,26,08,46,5.80
2011,04,26,08,47,5.80
2011,04,26,08,48,5.90
2011,04,26,08,49,5.90
2011,04,26,08,50,6.00
2011,04,26,08,51,6.00
2011,04,26,08,52,6.00
2011,04,26,08,53,6.00
2011,04,26,08,54,6.10
2011,04,26,08,55,6.10
2011,04,26,08,56,6.10
2011,04,26,08,57,6.10
2011,04,26,08,58,6.10
2011,04,26,08,59,6.10
2011,04,26,09,00,6.20
2011,04,26,09,01,6.20
2011,04,26,09,02,6.20
2011,04,26,09,03,6.20
2011,04,26,09,04,6.20
2011,04,26,09,05,6.30
2011,04,26,09,06,6.30
2011,04,26,09,07,6.30
2011,04,26,09,08,6.30
2011,04,26,09,09,6.30
2011,04,26,09,10,6.30
2011,04,26,09,11,6.30
2011,04,26,09,12,6.30
2011,04,26,09,13,6.30
2011,04,26,09,14,6.30
2011,04,26,09,15,6.30
2011,04,26,09,16,6.40
2011,04,26,09,17,6.40
2011,04,26,09,18,6.40
2011,04,26,09,19,6.40
2011,04,26,09,20,6.40
2011,04,26,09,21,6.40
2011,04,26,09,22,6.40
2011,04,26,09,23,6.40
2011,04,26,09,24,6.50
2011,04,26,09,25,6.50
2011,04,26,09,26,6.50
2011,04,26,09,27,6.60
2011,04,26,09,28,6.60
2011,04,26,09,29,6.60
2011,04,26,09,30,6.60
2011,04,26,09,31,6.60
2011,04,26,09,32,6.70
2011,04,26,09,33,6.70
2011,04,26,09,34,6.70
2011,04,26,09,35,6.70
2011,04,26,09,36,6.70
2011,04,26,09,37,6.80
2011,04,26,09,38,6.80
2011,04,26,09,39,6.80
2011,04,26,09,40,6.80
2011,04,26,09,41,6.90
2011,04,26,09,42,6.90
2011,04,26,09,43,7.00
2011,04,26,09,44,7.00
2011,04,26,09,45,7.10
2011,04,26,09,46,7.10
2011,04,26,09,47,7.10
2011,04,26,09,48,7.20
2011,04,26,09,49,7.20
2011,04,26,09,50,7.30
2011,04,26,09,51,7.30
2011,04,26,09,52,7.40
2011,04,26,09,53,7.40
2011,04,26,09,54,7.40
2011,04,26,09,55,7.50
2011,04,26,09,56,7.50
2011,04,26,09,57,7.50
2011,04,26,09,58,7.60
2011,04,26,09,59,7.60
2011,04,26,10,00,7.60
2011,04,26,10,01,7.60
2011,04,26,10,02,7.60
2011,04,26,10,03,7.60
2011,04,26,10,04,7.70
2011,04,26,10,05,7.70
2011,04,26,10,06,7.70
2011,04,26,10,07,7.70
2011,04,26,10,08,7.80
2011,04,26,10,09,7.80
2011,04,26,10,10,7.80
2011,04,26,10,11,7.80
2011,04,26,10,12,7.80
2011,04,26,10,13,7.80
2011,04,26,10,14,7.80
2011,04,26,10,15,7.90
2011,04,26,10,16,7.90
2011,04,26,10,17,8.00
2011,04,26,10,18,8.00
2011,04,26,10,19,8.10
2011,04,26,10,20,8.10
2011,04,26,10,21,8.10
2011,04,26,10,22,8.20
2011,04,26,10,23,8.20
2011,04,26,10,24,8.20
2011,04,26,10,25,8.20
2011,04,26,10,26,8.20
2011,04,26,10,27,8.30
2011,04,26,10,28,8.30
2011,04,26,10,29,8.30
2011,04,26,10,30,8.40
2011,04,26,10,31,8.40
2011,04,26,10,32,8.50
2011,04,26,10,33,8.50
2011,04,26,10,34,8.60
2011,04,26,10,35,8.60
2011,04,26,10,36,8.70
2011,04,26,10,37,8.80
2011,04,26,10,38,8.80
2011,04,26,10,39,8.80
2011,04,26,10,40,8.90
2011,04,26,10,41,8.90
2011,04,26,10,42,8.90
2011,04,26,10,43,8.90
2011,04,26,10,44,9.00
2011,04,26,10,45,9.00
2011,04,26,10,46,9.10
2011,04,26,10,47,9.10
2011,04,26,10,48,9.20
2011,04,26,10,49,9.30
2011,04,26,10,50,9.40
2011,04,26,10,51,9.40
2011,04,26,10,52,9.50
2011,04,26,10,53,9.50
2011,04,26,10,54,9.60
2011,04,26,10,55,9.70
2011,04,26,10,56,9.80
2011,04,26,10,57,9.80
2011,04,26,10,58,9.70
2011,04,26,10,59,9.70
2011,04,26,11,00,9.70
2011,04,26,11,01,9.70
2011,04,26,11,02,9.70
2011,04,26,11,03,9.70
2011,04,26,11,04,9.70
2011,04,26,11,05,9.70
2011,04,26,11,06,9.80
2011,04,26,11,07,9.90
2011,04,26,11,08,9.90
2011,04,26,11,09,9.90
2011,04,26,11,10,10.00
2011,04,26,11,11,10.00
2011,04,26,11,12,10.00
2011,04,26,11,13,10.00
2011,04,26,11,14,10.00
2011,04,26,11,15,10.00
2011,04,26,11,16,10.00
2011,04,26,11,17,10.00
2011,04,26,11,18,10.00
2011,04,26,11,19,10.10
2011,04,26,11,20,10.10
2011,04,26,11,21,10.20
2011,04,26,11,22,10.20
2011,04,26,11,23,10.20
2011,04,26,11,24,10.30
2011,04,26,11,25,10.30
2011,04,26,11,26,10.30
2011,04,26,11,27,10.40
2011,04,26,11,28,10.40
2011,04,26,11,29,10.50
2011,04,26,11,30,10.60
2011,04,26,11,31,10.70
2011,04,26,11,32,10.70
2011,04,26,11,33,10.70
2011,04,26,11,34,10.70
2011,04,26,11,35,10.70
2011,04,26,11,36,10.70
2011,04,26,11,37,10.70
2011,04,26,11,38,10.70
2011,04,26,11,39,10.70
2011,04,26,11,40,10.70
2011,04,26,11,41,10.70
2011,04,26,11,42,10.70
2011,04,26,11,43,10.70
2011,04,26,11,44,10.60
2011,04,26,11,45,10.60
2011,04,26,11,46,10.60
2011,04,26,11,47,10.70
2011,04,26,11,48,10.70
2011,04,26,11,49,10.70
2011,04,26,11,50,10.70
2011,04,26,11,51,10.70
2011,04,26,11,52,10.70
2011,04,26,11,53,10.70
2011,04,26,11,54,10.70
2011,04,26,11,55,10.70
2011,04,26,11,56,10.70
2011,04,26,11,57,10.70
2011,04,26,11,58,10.60
2011,04,26,11,59,10.60
2011,04,26,12,00,10.70
2011,04,26,12,01,10.70
2011,04,26,12,02,10.70
2011,04,26,12,03,10.70
2011,04,26,12,04,10.70
2011,04,26,12,05,10.70
2011,04,26,12,06,10.70
2011,04,26,12,07,10.70
2011,04,26,12,08,10.70
2011,04,26,12,09,10.70
2011,04,26,12,10,10.80
2011,04,26,12,11,10.80
2011,04,26,12,12,10.80
2011,04,26,12,13,10.90
2011,04,26,12,14,11.00
2011,04,26,12,15,11.00
2011,04,26,12,16,11.10
2011,04,26,12,17,11.20
2011,04,26,12,18,11.30
2011,04,26,12,19,11.30
2011,04,26,12,20,11.30
2011,04,26,12,21,11.40
2011,04,26,12,22,11.50
2011,04,26,12,23,11.60
2011,04,26,12,24,11.80
2011,04,26,12,25,11.90
2011,04,26,12,26,11.90
2011,04,26,12,27,11.80
2011,04,26,12,28,11.80
2011,04,26,12,29,11.60
2011,04,26,12,30,11.50
2011,04,26,12,31,11.30
2011,04,26,12,32,11.30
2011,04,26,12,33,11.20
2011,04,26,12,34,11.20
2011,04,26,12,35,11.10
2011,04,26,12,36,11.10
2011,04,26,12,37,11.10
2011,04,26,12,38,11.10
2011,04,26,12,39,11.20
2011,04,26,12,40,11.20
2011,04,26,12,41,11.30
2011,04,26,12,42,11.30
2011,04,26,12,43,11.30
2011,04,26,12,44,11.30
2011,04,26,12,45,11.40
2011,04,26,12,46,11.50
2011,04,26,12,47,11.50
2011,04,26,12,48,11.60
2011,04,26,12,49,11.70
2011,04,26,12,50,11.70
2011,04,26,12,51,11.80
2011,04,26,12,52,11.90
2011,04,26,12,53,12.10
2011,04,26,12,54,12.20
2011,04,26,12,55,12.20
2011,04,26,12,56,12.30
2011,04,26,12,57,12.30
2011,04,26,12,58,12.30
2011,04,26,12,59,12.40
2011,04,26,13,00,12.40
2011,04,26,13,01,12.40
2011,04,26,13,02,12.40
2011,04,26,13,03,12.30
2011,04,26,13,04,12.20
2011,04,26,13,05,12.30
2011,04,26,13,06,12.30
2011,04,26,13,07,12.40
2011,04,26,13,08,12.40
2011,04,26,13,09,12.40
2011,04,26,13,10,12.50
2011,04,26,13,11,12.60
2011,04,26,13,12,12.60
2011,04,26,13,13,12.70
2011,04,26,13,14,12.60
2011,04,26,13,15,12.60
2011,04,26,13,16,12.50
2011,04,26,13,17,12.50
2011,04,26,13,18,12.40
2011,04,26,13,19,12.40
2011,04,26,13,20,12.30
2011,04,26,13,21,12.20
2011,04,26,13,22,12.10
2011,04,26,13,23,11.90
2011,04,26,13,24,11.80
2011,04,26,13,25,11.70
2011,04,26,13,26,11.70
2011,04,26,13,27,11.70
2011,04,26,13,28,11.90
2011,04,26,13,29,11.90
2011,04,26,13,30,12.00
2011,04,26,13,31,12.10
2011,04,26,13,32,12.20
2011,04,26,13,33,12.20
2011,04,26,13,34,12.50
2011,04,26,13,35,12.70
2011,04,26,13,36,12.90
2011,04,26,13,37,12.90
2011,04,26,13,38,12.90
2011,04,26,13,39,13.00
2011,04,26,13,40,13.10
2011,04,26,13,41,13.20
2011,04,26,13,42,13.20
2011,04,26,13,43,13.20
2011,04,26,13,44,13.20
2011,04,26,13,45,13.20
2011,04,26,13,46,13.10
2011,04,26,13,47,13.10
2011,04,26,13,48,13.00
2011,04,26,13,49,12.90
2011,04,26,13,50,12.90
2011,04,26,13,51,12.90
2011,04,26,13,52,13.00
2011,04,26,13,53,13.10
2011,04,26,13,54,13.20
2011,04,26,13,55,13.30
2011,04,26,13,56,13.40
2011,04,26,13,57,13.40
2011,04,26,13,58,13.30
2011,04,26,13,59,13.20
2011,04,26,14,00,13.10
2011,04,26,14,01,13.00
2011,04,26,14,02,12.90
2011,04,26,14,03,12.90
2011,04,26,14,04,13.00
2011,04,26,14,05,12.90
2011,04,26,14,06,12.90
2011,04,26,14,07,12.90
2011,04,26,14,08,12.80
2011,04,26,14,09,12.90
2011,04,26,14,10,12.90
2011,04,26,14,11,12.90
2011,04,26,14,12,13.00
2011,04,26,14,13,13.10
2011,04,26,14,14,13.20
2011,04,26,14,15,13.30
2011,04,26,14,16,13.40
2011,04,26,14,17,13.40
2011,04,26,14,18,13.40
2011,04,26,14,19,13.30
2011,04,26,14,20,13.30
2011,04,26,14,21,13.10
2011,04,26,14,22,13.00
2011,04,26,14,23,13.10
2011,04,26,14,24,13.10
2011,04,26,14,25,13.20
2011,04,26,14,26,13.20
2011,04,26,14,27,13.20
2011,04,26,14,28,13.20
2011,04,26,14,29,13.20
2011,04,26,14,30,13.00
2011,04,26,14,31,12.90
2011,04,26,14,32,13.00
2011,04,26,14,33,13.10
2011,04,26,14,34,13.10
2011,04,26,14,35,13.00
2011,04,26,14,36,13.00
2011,04,26,14,37,13.10
2011,04,26,14,38,13.10
2011,04,26,14,39,13.00
2011,04,26,14,40,12.90
2011,04,26,14,41,12.80
2011,04,26,14,42,12.70
2011,04,26,14,43,12.70
2011,04,26,14,44,12.70
2011,04,26,14,45,12.70
2011,04,26,14,46,12.60
2011,04,26,14,47,12.60
2011,04,26,14,48,12.40
2011,04,26,14,49,12.30
2011,04,26,14,50,12.20
2011,04,26,14,51,12.20
2011,04,26,14,52,12.20
2011,04,26,14,53,12.10
2011,04,26,14,54,12.00
2011,04,26,14,55,11.90
2011,04,26,14,56,11.90
2011,04,26,14,57,11.80
2011,04,26,14,58,11.70
2011,04,26,14,59,11.60
2011,04,26,15,00,11.40
2011,04,26,15,01,11.30
2011,04,26,15,02,11.30
2011,04,26,15,03,11.30
2011,04,26,15,04,11.20
2011,04,26,15,05,11.20
2011,04,26,15,06,11.20
2011,04,26,15,07,11.30
2011,04,26,15,08,11.30
2011,04,26,15,09,11.40
2011,04,26,15,10,11.40
2011,04,26,15,11,11.40
2011,04,26,15,12,11.50
2011,04,26,15,13,11.50
2011,04,26,15,14,11.50
2011,04,26,15,15,11.60
2011,04,26,15,16,11.70
2011,04,26,15,17,11.80
2011,04,26,15,18,11.80
2011,04,26,15,19,11.80
2011,04,26,15,20,11.90
2011,04,26,15,21,11.80
2011,04,26,15,22,11.90
2011,04,26,15,23,11.90
2011,04,26,15,24,11.90
2011,04,26,15,25,12.00
2011,04,26,15,26,12.00
2011,04,26,15,27,12.00
2011,04,26,15,28,11.90
2011,04,26,15,29,11.80
2011,04,26,15,30,11.80
2011,04,26,15,31,11.80
2011,04,26,15,32,11.80
2011,04,26,15,33,11.80
2011,04,26,15,34,11.90
2011,04,26,15,35,12.00
2011,04,26,15,36,12.10
2011,04,26,15,37,12.20
2011,04,26,15,38,12.20
2011,04,26,15,39,12.10
2011,04,26,15,40,12.10
2011,04,26,15,41,12.00
2011,04,26,15,42,12.10
2011,04,26,15,43,12.10
2011,04,26,15,44,12.10
2011,04,26,15,45,12.20
2011,04,26,15,46,12.20
2011,04,26,15,47,12.20
2011,04,26,15,48,12.20
2011,04,26,15,49,12.20
2011,04,26,15,50,12.20
2011,04,26,15,51,12.00
2011,04,26,15,52,11.90
2011,04,26,15,53,11.80
2011,04,26,15,54,11.70
2011,04,26,15,55,11.70
2011,04,26,15,56,11.60
2011,04,26,15,57,11.60
2011,04,26,15,58,11.60
2011,04,26,15,59,11.60
2011,04,26,16,00,11.70
2011,04,26,16,01,11.70
2011,04,26,16,02,11.60
2011,04,26,16,03,11.60
2011,04,26,16,04,11.50
2011,04,26,16,05,11.40
2011,04,26,16,06,11.40
2011,04,26,16,07,11.40
2011,04,26,16,08,11.40
2011,04,26,16,09,11.40
2011,04,26,16,10,11.40
2011,04,26,16,11,11.50
2011,04,26,16,12,11.60
2011,04,26,16,13,11.60
2011,04,26,16,14,11.70
2011,04,26,16,15,11.80
2011,04,26,16,16,11.80
2011,04,26,16,17,11.80
2011,04,26,16,18,11.80
2011,04,26,16,19,11.80
2011,04,26,16,20,11.80
2011,04,26,16,21,12.00
2011,04,26,16,22,12.10
2011,04,26,16,23,12.10
2011,04,26,16,24,12.10
2011,04,26,16,25,12.00
2011,04,26,16,26,11.90
2011,04,26,16,27,11.80
2011,04,26,16,28,11.70
2011,04,26,16,29,11.70
2011,04,26,16,30,11.70
2011,04,26,16,31,11.70
2011,04,26,16,32,11.70
2011,04,26,16,33,11.70
2011,04,26,16,34,11.60
2011,04,26,16,35,11.60
2011,04,26,16,36,11.60
2011,04,26,16,37,11.60
2011,04,26,16,38,11.60
2011,04,26,16,39,11.50
2011,04,26,16,40,11.40
2011,04,26,16,41,11.40
2011,04,26,16,42,11.50
2011,04,26,16,43,11.50
2011,04,26,16,44,11.50
2011,04,26,16,45,11.50
2011,04,26,16,46,11.50
2011,04,26,16,47,11.60
2011,04,26,16,48,11.60
2011,04,26,16,49,11.60
2011,04,26,16,50,11.60
2011,04,26,16,51,11.60
2011,04,26,16,52,11.60
2011,04,26,16,53,11.50
2011,04,26,16,54,11.40
2011,04,26,16,55,11.40
2011,04,26,16,56,11.40
2011,04,26,16,57,11.40
2011,04,26,16,58,11.40
2011,04,26,16,59,11.30
2011,04,26,17,00,11.30
2011,04,26,17,01,11.20
2011,04,26,17,02,11.10
2011,04,26,17,03,11.10
2011,04,26,17,04,11.10
2011,04,26,17,05,11.10
2011,04,26,17,06,11.10
2011,04,26,17,07,11.20
2011,04,26,17,08,11.30
2011,04,26,17,09,11.30
2011,04,26,17,10,11.30
2011,04,26,17,11,11.30
2011,04,26,17,12,11.30
2011,04,26,17,13,11.30
2011,04,26,17,14,11.30
2011,04,26,17,15,11.30
2011,04,26,17,16,11.30
2011,04,26,17,17,11.30
2011,04,26,17,18,11.30
2011,04,26,17,19,11.30
2011,04,26,17,20,11.30
2011,04,26,17,21,11.30
2011,04,26,17,22,11.30
2011,04,26,17,23,11.30
2011,04,26,17,24,11.30
2011,04,26,17,25,11.30
2011,04,26,17,26,11.20
2011,04,26,17,27,11.20
2011,04,26,17,28,11.20
2011,04,26,17,29,11.20
2011,04,26,17,30,11.20
2011,04,26,17,31,11.20
2011,04,26,17,32,11.20
2011,04,26,17,33,11.20
2011,04,26,17,34,11.20
2011,04,26,17,35,11.20
2011,04,26,17,36,11.20
2011,04,26,17,37,11.10
2011,04,26,17,38,11.10
2011,04,26,17,39,11.20
2011,04,26,17,40,11.20
2011,04,26,17,41,11.20
2011,04,26,17,42,11.10
2011,04,26,17,43,11.10
2011,04,26,17,44,11.00
2011,04,26,17,45,11.00
2011,04,26,17,46,11.00
2011,04,26,17,47,11.00
2011,04,26,17,48,11.00
2011,04,26,17,49,11.00
2011,04,26,17,50,11.00
2011,04,26,17,51,10.90